TimeCDT,TemperatureF,Dew PointF,Humidity,Sea Level PressureIn,VisibilityMPH,Wind Direction,Wind SpeedMPH,Gust SpeedMPH,PrecipitationIn,Events,Conditions,WindDirDegrees,DateUTC
12:58 AM,62.1,56.7,82,29.86,10.0,SSE,10.4,-,N/A,,Clear,150,2013-09-24 05:58:00
1:58 AM,61.9,57.4,85,29.84,10.0,South,11.5,-,N/A,,Clear,170,2013-09-24 06:58:00
2:58 AM,61.3,57.7,88,29.84,10.0,SSE,9.2,-,N/A,,Clear,160,2013-09-24 07:58:00
3:58 AM,60.6,58.1,91,29.83,10.0,South,8.1,-,N/A,,Partly Cloudy,170,2013-09-24 08:58:00
4:58 AM,60.3,58.6,94,29.83,10.0,South,10.4,-,N/A,,Clear,170,2013-09-24 09:58:00
5:58 AM,60.3,59.4,97,29.82,10.0,South,11.5,-,N/A,,Clear,180,2013-09-24 10:58:00
6:58 AM,60.1,59.5,98,29.81,10.0,South,10.4,-,N/A,,Scattered Clouds,170,2013-09-24 11:58:00
7:58 AM,60.6,60.1,98,29.81,10.0,South,8.1,-,N/A,,Scattered Clouds,170,2013-09-24 12:58:00
8:58 AM,64.9,60.1,84,29.81,10.0,South,9.2,-,N/A,,Scattered Clouds,180,2013-09-24 13:58:00
9:58 AM,69.6,59.2,69,29.81,10.0,SSW,10.4,-,N/A,,Scattered Clouds,210,2013-09-24 14:58:00
10:58 AM,71.6,59.5,66,29.81,10.0,SSW,8.1,-,N/A,,Scattered Clouds,210,2013-09-24 15:58:00
11:58 AM,73.4,59.5,62,29.81,10.0,SSW,5.8,-,N/A,,Partly Cloudy,200,2013-09-24 16:58:00
12:58 PM,76.3,59.7,56,29.81,10.0,SSW,11.5,-,N/A,,Mostly Cloudy,200,2013-09-24 17:58:00
1:58 PM,75.7,59.7,57,29.79,10.0,WSW,9.2,-,N/A,,Mostly Cloudy,240,2013-09-24 18:58:00
2:58 PM,72.0,59.5,65,29.81,10.0,West,12.7,-,N/A,,Mostly Cloudy,280,2013-09-24 19:58:00
3:58 PM,69.1,58.8,70,29.82,10.0,WSW,9.2,-,N/A,,Mostly Cloudy,250,2013-09-24 20:58:00
4:58 PM,68.9,58.6,70,29.82,10.0,West,5.8,-,N/A,,Mostly Cloudy,260,2013-09-24 21:58:00
5:58 PM,67.3,58.5,73,29.83,10.0,West,6.9,-,N/A,,Mostly Cloudy,270,2013-09-24 22:58:00
6:58 PM,65.7,59.5,81,29.83,10.0,West,4.6,-,N/A,,Mostly Cloudy,280,2013-09-24 23:58:00
7:58 PM,64.8,60.1,85,29.83,10.0,NW,4.6,-,N/A,,Mostly Cloudy,310,2013-09-25 00:58:00
8:58 PM,61.9,61.0,97,29.84,10.0,NW,4.6,-,N/A,,Mostly Cloudy,320,2013-09-25 01:58:00
9:58 PM,60.6,60.3,99,29.83,10.0,WNW,4.6,-,N/A,,Mostly Cloudy,290,2013-09-25 02:58:00
10:58 PM,57.7,57.7,100,29.84,10.0,Calm,Calm,-,N/A,,Scattered Clouds,0,2013-09-25 03:58:00
11:58 PM,56.5,56.5,100,29.83,10.0,WSW,3.5,-,N/A,,Clear,240,2013-09-25 04:58:00